| time (UTC) | temp C | wind direction | speed KPH | gust KPH | rain 1hr cm | rain 24hr cm | rain mn cm | humidity % | barometer mb |
| 20260507180732 | 13 | 202 | 6.4 | 14.5 | 0.00 | 1.27 | 1.09 | 72 | 1013.3 |
| 20260507175830 | 13 | 193 | 8.0 | 14.5 | 0.00 | 1.27 | 1.09 | 71 | 1013.4 |
| 20260507173931 | 13 | 194 | 9.7 | 14.5 | 0.00 | 1.27 | 1.09 | 69 | 1013.7 |
| 20260507171931 | 13 | 180 | 9.7 | 16.1 | 0.00 | 1.27 | 1.09 | 71 | 1013.8 |
| 20260507170932 | 13 | 208 | 9.7 | 19.3 | 0.00 | 1.27 | 1.09 | 69 | 1013.8 |
| 20260507170829 | 13 | 214 | 6.4 | 16.1 | 0.00 | 1.27 | 1.09 | 68 | 1013.9 |
| 20260507165830 | 14 | 192 | 6.4 | 11.3 | 0.00 | 1.27 | 1.09 | 68 | 1014.0 |
| 20260507165732 | 14 | 189 | 9.7 | 12.9 | 0.00 | 1.27 | 1.09 | 69 | 1014.0 |
| 20260507164732 | 14 | 198 | 3.2 | 9.7 | 0.00 | 1.27 | 1.09 | 69 | 1014.1 |
| 20260507161730 | 14 | 251 | 4.8 | 6.4 | 0.00 | 1.27 | 1.09 | 67 | 1014.2 |
| 20260507160731 | 13 | 202 | 0.0 | 0.0 | 0.00 | 1.27 | 1.09 | 69 | 1014.3 |
| 20260507155830 | 13 | 247 | 4.8 | 6.4 | 0.00 | 1.27 | 1.09 | 67 | 1014.6 |
| 20260507154831 | 12 | 270 | 0.0 | 0.0 | 0.00 | 1.27 | 1.09 | 68 | 1014.6 |
| 20260507153831 | 12 | 247 | 3.2 | 6.4 | 0.00 | 1.27 | 1.09 | 67 | 1014.7 |
| 20260507151830 | 12 | 244 | 4.8 | 8.0 | 0.00 | 1.27 | 1.09 | 74 | 1014.9 |
| 20260507150831 | 12 | 270 | 6.4 | 9.7 | 0.00 | 1.27 | 1.09 | 76 | 1015.0 |
| 20260507145831 | 11 | 315 | 3.2 | 4.8 | 0.00 | 1.27 | 1.09 | 78 | 1014.7 |
| 20260507145730 | 11 | 315 | 3.2 | 4.8 | 0.00 | 1.27 | 1.09 | 78 | 1014.7 |
| 20260507144829 | 11 | 259 | 4.8 | 6.4 | 0.00 | 1.27 | 1.09 | 81 | 1014.7 |
| 20260507143831 | 10 | 270 | 4.8 | 6.4 | 0.00 | 1.27 | 1.09 | 80 | 1014.8 |
| 20260507142831 | 10 | 302 | 8.0 | 9.7 | 0.00 | 1.27 | 1.09 | 82 | 1014.8 |
| 20260507141831 | 10 | 292 | 6.4 | 9.7 | 0.00 | 1.27 | 1.09 | 83 | 1015.0 |
| 20260507141729 | 10 | 271 | 8.0 | 9.7 | 0.00 | 1.27 | 1.09 | 84 | 1015.0 |
| 20260507140730 | 10 | 276 | 8.0 | 9.7 | 0.00 | 1.27 | 1.09 | 83 | 1014.9 |
| 20260507140631 | 10 | 292 | 9.7 | 11.3 | 0.00 | 1.27 | 1.09 | 82 | 1015.0 |
| 20260507140531 | 10 | 310 | 9.7 | 11.3 | 0.00 | 1.27 | 1.09 | 82 | 1015.0 |
| 20260507135531 | 10 | 282 | 9.7 | 14.5 | 0.00 | 1.27 | 1.09 | 83 | 1014.9 |
| 20260507135430 | 10 | 292 | 6.4 | 9.7 | 0.00 | 1.27 | 1.09 | 83 | 1014.9 |
| 20260507134432 | 9 | 315 | 12.9 | 12.9 | 0.00 | 1.27 | 1.09 | 82 | 1014.9 |
| 20260507133429 | 9 | 312 | 11.3 | 16.1 | 0.00 | 1.27 | 1.09 | 83 | 1015.0 |
| 20260507132430 | 9 | 316 | 8.0 | 12.9 | 0.03 | 1.27 | 1.09 | 83 | 1015.0 |
| 20260507132332 | 9 | 315 | 8.0 | 11.3 | 0.03 | 1.27 | 1.09 | 82 | 1015.0 |
| 20260507131430 | 9 | 318 | 9.7 | 12.9 | 0.05 | 1.27 | 1.09 | 86 | 1014.7 |
| 20260507130431 | 8 | 326 | 8.0 | 9.7 | 0.05 | 1.27 | 1.09 | 87 | 1014.7 |
| 20260507125430 | 8 | 315 | 8.0 | 8.0 | 0.05 | 1.27 | 1.09 | 88 | 1014.7 |
| 20260507124430 | 8 | 292 | 8.0 | 9.7 | 0.05 | 1.27 | 1.09 | 87 | 1015.0 |
| 20260507123431 | 8 | 292 | 6.4 | 9.7 | 0.08 | 1.27 | 1.09 | 88 | 1014.8 |
| 20260507122530 | 8 | 304 | 12.9 | 16.1 | 0.08 | 1.24 | 1.07 | 87 | 1015.0 |
| 20260507121531 | 8 | 315 | 9.7 | 12.9 | 0.08 | 1.22 | 1.04 | 87 | 1014.9 |
| 20260507115632 | 8 | 316 | 11.3 | 14.5 | 0.08 | 1.22 | 1.04 | 88 | 1014.7 |
| 20260507114728 | 8 | 313 | 12.9 | 16.1 | 0.08 | 1.22 | 1.04 | 87 | 1014.7 |
| 20260507114630 | 8 | 313 | 11.3 | 16.1 | 0.08 | 1.22 | 1.04 | 87 | 1014.6 |
| 20260507113632 | 8 | 316 | 14.5 | 17.7 | 0.10 | 1.22 | 1.04 | 87 | 1014.7 |
| 20260507112730 | 9 | 285 | 16.1 | 22.5 | 0.05 | 1.17 | 0.99 | 88 | 1015.3 |
| 20260507112630 | 9 | 289 | 17.7 | 22.5 | 0.05 | 1.17 | 0.99 | 88 | 1015.3 |
| 20260507111632 | 10 | 292 | 19.3 | 24.1 | 0.03 | 1.14 | 0.97 | 88 | 1015.1 |
| 20260507110531 | 10 | 315 | 17.7 | 22.5 | 0.03 | 1.14 | 0.97 | 87 | 1013.8 |
| 20260507105629 | 10 | 319 | 14.5 | 17.7 | 0.08 | 1.14 | 0.97 | 89 | 1013.7 |
| 20260507104632 | 10 | 317 | 17.7 | 24.1 | 0.10 | 1.14 | 0.94 | 88 | 1013.7 |
| 20260507102731 | 11 | 313 | 20.9 | 25.7 | 0.10 | 1.12 | 0.94 | 89 | 1013.9 |
| 20260507102629 | 11 | 306 | 16.1 | 22.5 | 0.13 | 1.12 | 0.94 | 90 | 1013.8 |
| 20260507101631 | 11 | 314 | 19.3 | 24.1 | 0.18 | 1.12 | 0.94 | 90 | 1013.9 |
| 20260507100631 | 11 | 324 | 17.7 | 22.5 | 0.20 | 1.12 | 0.94 | 89 | 1013.3 |
| 20260507095629 | 11 | 318 | 22.5 | 30.6 | 0.18 | 1.07 | 0.89 | 90 | 1013.3 |
| 20260507095529 | 11 | 317 | 19.3 | 29.0 | 0.18 | 1.07 | 0.89 | 91 | 1013.3 |
| 20260507094532 | 11 | 316 | 11.3 | 14.5 | 0.20 | 1.04 | 0.86 | 90 | 1013.5 |
| 20260507094432 | 11 | 315 | 12.9 | 19.3 | 0.20 | 1.04 | 0.86 | 90 | 1013.4 |
| 20260507092529 | 12 | 316 | 16.1 | 20.9 | 0.41 | 0.99 | 0.81 | 92 | 1013.4 |
| 20260507090531 | 12 | 292 | 9.7 | 11.3 | 0.71 | 0.91 | 0.71 | 95 | 1013.3 |
| 20260507085531 | 12 | 270 | 1.6 | 3.2 | 0.69 | 0.89 | 0.71 | 95 | 1013.4 |
| 20260507084630 | 11 | 251 | 6.4 | 8.0 | 0.64 | 0.84 | 0.66 | 95 | 1013.3 |
| 20260507083631 | 11 | 180 | 4.8 | 6.4 | 0.56 | 0.76 | 0.58 | 94 | 1013.5 |
| 20260507083529 | 11 | 180 | 4.8 | 8.0 | 0.56 | 0.76 | 0.56 | 94 | 1013.4 |
| 20260507082530 | 11 | 270 | 9.7 | 14.5 | 0.38 | 0.58 | 0.38 | 95 | 1013.1 |
| 20260507082430 | 11 | 269 | 9.7 | 14.5 | 0.36 | 0.56 | 0.36 | 94 | 1013.2 |
| 20260507081430 | 11 | 261 | 9.7 | 14.5 | 0.15 | 0.36 | 0.15 | 95 | 1013.3 |
| 20260507081331 | 11 | 269 | 9.7 | 12.9 | 0.13 | 0.33 | 0.10 | 94 | 1013.3 |
| 20260507080331 | 11 | 217 | 1.6 | 6.4 | 0.00 | 0.20 | 0.03 | 94 | 1012.4 |
| 20260507075429 | 11 | 180 | 3.2 | 6.4 | 0.00 | 0.20 | 0.03 | 95 | 1012.4 |
| 20260507074429 | 11 | 180 | 4.8 | 8.0 | 0.00 | 0.20 | 0.03 | 95 | 1012.5 |
| 20260507074332 | 11 | 180 | 4.8 | 6.4 | 0.00 | 0.20 | 0.03 | 95 | 1012.6 |
| 20260507073330 | 11 | 180 | 4.8 | 8.0 | 0.00 | 0.20 | 0.03 | 95 | 1012.4 |
| 20260507073232 | 11 | 178 | 4.8 | 9.7 | 0.00 | 0.20 | 0.03 | 95 | 1012.4 |
| 20260507072230 | 11 | 179 | 9.7 | 14.5 | 0.00 | 0.20 | 0.03 | 94 | 1012.7 |
| 20260507071231 | 11 | 175 | 4.8 | 11.3 | 0.00 | 0.20 | 0.03 | 95 | 1012.8 |
| 20260507070231 | 11 | 185 | 6.4 | 11.3 | 0.00 | 0.20 | 0.03 | 94 | 1012.9 |
| 20260507065229 | 11 | 180 | 3.2 | 9.7 | 0.00 | 0.20 | 0.03 | 94 | 1013.0 |
| 20260507065130 | 11 | 180 | 4.8 | 9.7 | 0.00 | 0.20 | 0.03 | 94 | 1013.0 |
| 20260507064130 | 11 | 180 | 4.8 | 6.4 | 0.00 | 0.20 | 0.03 | 95 | 1012.8 |
| 20260507064030 | 11 | 180 | 6.4 | 11.3 | 0.00 | 0.20 | 0.03 | 95 | 1012.8 |
| 20260507063931 | 11 | 180 | 4.8 | 8.0 | 0.00 | 0.20 | 0.03 | 95 | 1012.8 |
| 20260507063030 | 11 | 186 | 4.8 | 8.0 | 0.00 | 0.20 | 0.03 | 94 | 1012.8 |
| 20260507062129 | 11 | 180 | 3.2 | 8.0 | 0.03 | 0.20 | 0.03 | 95 | 1013.0 |
| 20260507062030 | 11 | 180 | 1.6 | 9.7 | 0.03 | 0.20 | 0.03 | 95 | 1013.1 |
| 20260507061030 | 11 | 180 | 4.8 | 6.4 | 0.03 | 0.20 | 0.03 | 94 | 1013.3 |
| 20260507060128 | 11 | 210 | 3.2 | 9.7 | 0.03 | 0.20 | 0.03 | 94 | 1013.4 |
| 20260507054129 | 11 | 181 | 6.4 | 14.5 | 0.03 | 0.20 | 0.03 | 95 | 1013.8 |
| 20260507052028 | 11 | 205 | 6.4 | 14.5 | 0.00 | 0.18 | 0.00 | 94 | 1014.0 |
| 20260507051031 | 11 | 202 | 8.0 | 16.1 | 0.00 | 0.18 | 0.00 | 95 | 1014.1 |
| 20260507050032 | 11 | 212 | 8.0 | 12.9 | 0.00 | 0.18 | 0.00 | 95 | 1014.4 |
| 20260507045128 | 11 | 228 | 3.2 | 8.0 | 0.00 | 0.18 | 0.00 | 94 | 1014.3 |
| 20260507045028 | 11 | 202 | 8.0 | 17.7 | 0.00 | 0.18 | 0.00 | 95 | 1014.2 |
| 20260507044030 | 11 | 205 | 6.4 | 12.9 | 0.00 | 0.18 | 0.00 | 93 | 1014.3 |
| 20260507043930 | 11 | 214 | 6.4 | 14.5 | 0.00 | 0.18 | 0.00 | 93 | 1014.2 |
| 20260507043831 | 11 | 227 | 3.2 | 9.7 | 0.00 | 0.18 | 0.00 | 94 | 1014.1 |
| 20260507042930 | 11 | 226 | 6.4 | 12.9 | 0.00 | 0.18 | 0.00 | 93 | 1014.4 |
| 20260507042830 | 11 | 200 | 4.8 | 11.3 | 0.00 | 0.18 | 0.00 | 94 | 1014.4 |
| 20260507041929 | 11 | 196 | 4.8 | 12.9 | 0.00 | 0.18 | 0.00 | 94 | 1014.3 |
| 20260507040027 | 11 | 210 | 6.4 | 22.5 | 0.00 | 0.18 | 0.00 | 93 | 1014.7 |
| 20260507035020 | 11 | 214 | 6.4 | 12.9 | 0.00 | 0.18 | 0.18 | 94 | 1014.4 |
| 20260507034023 | 11 | 234 | 9.7 | 17.7 | 0.00 | 0.18 | 0.18 | 94 | 1014.7 |
| 20260507033924 | 11 | 209 | 6.4 | 17.7 | 0.00 | 0.18 | 0.18 | 94 | 1014.7 |
| 20260507032922 | 12 | 211 | 9.7 | 22.5 | 0.00 | 0.18 | 0.18 | 94 | 1014.8 |
| 20260507031923 | 12 | 200 | 9.7 | 17.7 | 0.00 | 0.18 | 0.18 | 93 | 1014.4 |
| 20260507031823 | 12 | 212 | 4.8 | 17.7 | 0.00 | 0.18 | 0.18 | 94 | 1014.3 |
| 20260507030822 | 12 | 184 | 6.4 | 14.5 | 0.00 | 0.18 | 0.18 | 94 | 1014.5 |
| 20260507025921 | 12 | 215 | 4.8 | 11.3 | 0.00 | 0.18 | 0.18 | 94 | 1014.4 |
| 20260507023923 | 12 | 188 | 9.7 | 17.7 | 0.00 | 0.18 | 0.18 | 92 | 1014.6 |
| 20260507023820 | 12 | 186 | 8.0 | 14.5 | 0.00 | 0.18 | 0.18 | 92 | 1014.6 |
| 20260507022824 | 12 | 196 | 8.0 | 12.9 | 0.00 | 0.18 | 0.18 | 92 | 1014.9 |
| 20260507021920 | 12 | 190 | 8.0 | 17.7 | 0.00 | 0.18 | 0.18 | 93 | 1014.7 |
| 20260507020921 | 12 | 188 | 8.0 | 14.5 | 0.00 | 0.18 | 0.18 | 93 | 1015.0 |
| 20260507020823 | 12 | 202 | 6.4 | 12.9 | 0.00 | 0.18 | 0.18 | 92 | 1015.1 |
| 20260507015822 | 12 | 221 | 6.4 | 16.1 | 0.00 | 0.18 | 0.18 | 93 | 1015.2 |
| 20260507014920 | 12 | 215 | 8.0 | 19.3 | 0.00 | 0.18 | 0.18 | 93 | 1015.2 |
| 20260507014822 | 12 | 205 | 4.8 | 11.3 | 0.00 | 0.18 | 0.18 | 93 | 1015.2 |
| 20260507013820 | 12 | 223 | 9.7 | 17.7 | 0.00 | 0.18 | 0.18 | 93 | 1015.5 |
| 20260507012821 | 12 | 229 | 8.0 | 14.5 | 0.00 | 0.18 | 0.18 | 92 | 1015.6 |
| 20260507012723 | 12 | 236 | 6.4 | 14.5 | 0.00 | 0.18 | 0.18 | 93 | 1015.6 |
| 20260507011821 | 12 | 206 | 8.0 | 17.7 | 0.00 | 0.18 | 0.18 | 92 | 1015.5 |
| 20260507005920 | 13 | 218 | 11.3 | 20.9 | 0.00 | 0.18 | 0.18 | 93 | 1015.4 |
| 20260507004921 | 13 | 216 | 11.3 | 17.7 | 0.03 | 0.18 | 0.18 | 93 | 1015.3 |
| 20260507004821 | 13 | 213 | 9.7 | 16.1 | 0.03 | 0.18 | 0.18 | 93 | 1015.4 |
| 20260507003824 | 13 | 195 | 8.0 | 22.5 | 0.03 | 0.18 | 0.18 | 93 | 1015.3 |
| 20260507002823 | 13 | 190 | 11.3 | 16.1 | 0.08 | 0.18 | 0.18 | 93 | 1015.1 |
| 20260507002724 | 13 | 186 | 4.8 | 14.5 | 0.08 | 0.18 | 0.18 | 93 | 1015.1 |
| 20260507001820 | 13 | 194 | 11.3 | 22.5 | 0.10 | 0.18 | 0.18 | 93 | 1015.3 |
| 20260507001721 | 13 | 175 | 14.5 | 27.4 | 0.10 | 0.18 | 0.18 | 93 | 1015.3 |
| 20260507000820 | 13 | 203 | 9.7 | 27.4 | 0.13 | 0.18 | 0.18 | 93 | 1015.2 |
| 20260507000722 | 13 | 185 | 16.1 | 22.5 | 0.13 | 0.18 | 0.18 | 93 | 1015.2 |
| 20260506234721 | 13 | 186 | 14.5 | 30.6 | 0.13 | 0.15 | 0.15 | 93 | 1015.0 |
| 20260506234620 | 13 | 182 | 16.1 | 29.0 | 0.13 | 0.15 | 0.15 | 93 | 1015.0 |
| 20260506232621 | 13 | 173 | 17.7 | 32.2 | 0.10 | 0.10 | 0.10 | 92 | 1014.8 |
| 20260506232522 | 13 | 175 | 16.1 | 29.0 | 0.10 | 0.10 | 0.10 | 92 | 1014.8 |
| 20260506231523 | 13 | 174 | 17.7 | 29.0 | 0.08 | 0.08 | 0.08 | 91 | 1015.1 |
| 20260506231421 | 13 | 166 | 16.1 | 27.4 | 0.08 | 0.08 | 0.08 | 90 | 1015.2 |
| 20260506230520 | 13 | 166 | 16.1 | 27.4 | 0.05 | 0.05 | 0.05 | 91 | 1015.4 |
| 20260506230321 | 13 | 173 | 17.7 | 29.0 | 0.05 | 0.05 | 0.05 | 90 | 1015.3 |
| 20260506225321 | 13 | 176 | 14.5 | 24.1 | 0.03 | 0.03 | 0.03 | 89 | 1015.4 |
| 20260506224322 | 13 | 171 | 16.1 | 24.1 | 0.00 | 0.00 | 0.00 | 88 | 1015.6 |
| 20260506223421 | 13 | 185 | 17.7 | 29.0 | 0.00 | 0.00 | 0.00 | 86 | 1015.6 |
| 20260506223322 | 13 | 193 | 9.7 | 17.7 | 0.00 | 0.00 | 0.00 | 86 | 1015.6 |
| 20260506222322 | 13 | 196 | 16.1 | 24.1 | 0.00 | 0.00 | 0.00 | 84 | 1015.8 |
| 20260506222223 | 13 | 188 | 20.9 | 38.6 | 0.00 | 0.00 | 0.00 | 84 | 1015.7 |
| 20260506220223 | 14 | 192 | 17.7 | 30.6 | 0.00 | 0.00 | 0.00 | 81 | 1015.4 |
| 20260506215320 | 15 | 179 | 19.3 | 27.4 | 0.00 | 0.00 | 0.00 | 81 | 1015.5 |
| 20260506215223 | 15 | 176 | 12.9 | 25.7 | 0.00 | 0.00 | 0.00 | 81 | 1015.5 |
| 20260506214221 | 14 | 175 | 12.9 | 25.7 | 0.00 | 0.00 | 0.00 | 81 | 1015.6 |
| 20260506214120 | 14 | 171 | 16.1 | 24.1 | 0.00 | 0.00 | 0.00 | 81 | 1015.6 |
| 20260506214020 | 14 | 171 | 16.1 | 32.2 | 0.00 | 0.00 | 0.00 | 81 | 1015.6 |
| 20260506213022 | 14 | 177 | 19.3 | 33.8 | 0.00 | 0.00 | 0.00 | 81 | 1015.7 |
| 20260506212922 | 14 | 168 | 16.1 | 33.8 | 0.00 | 0.00 | 0.00 | 81 | 1015.7 |
| 20260506211922 | 15 | 184 | 17.7 | 27.4 | 0.00 | 0.00 | 0.00 | 79 | 1016.1 |
| 20260506211820 | 15 | 167 | 12.9 | 29.0 | 0.00 | 0.00 | 0.00 | 79 | 1016.1 |
| 20260506211724 | 15 | 177 | 16.1 | 29.0 | 0.00 | 0.00 | 0.00 | 80 | 1016.0 |
| 20260506210723 | 15 | 188 | 16.1 | 25.7 | 0.00 | 0.00 | 0.00 | 80 | 1015.9 |
| 20260506205821 | 15 | 175 | 14.5 | 27.4 | 0.00 | 0.00 | 0.00 | 79 | 1016.0 |
| 20260506204824 | 15 | 183 | 19.3 | 32.2 | 0.00 | 0.00 | 0.00 | 79 | 1016.0 |
| 20260506203922 | 15 | 175 | 17.7 | 33.8 | 0.00 | 0.00 | 0.00 | 80 | 1016.0 |
| 20260506203821 | 15 | 178 | 11.3 | 25.7 | 0.00 | 0.00 | 0.00 | 80 | 1016.1 |
| 20260506202821 | 15 | 180 | 17.7 | 27.4 | 0.00 | 0.00 | 0.00 | 78 | 1016.4 |
| 20260506200823 | 15 | 177 | 12.9 | 24.1 | 0.00 | 0.00 | 0.00 | 79 | 1016.4 |
| 20260506195920 | 15 | 190 | 11.3 | 22.5 | 0.00 | 0.00 | 0.00 | 78 | 1016.5 |
| 20260506194921 | 15 | 173 | 17.7 | 29.0 | 0.00 | 0.00 | 0.00 | 78 | 1016.6 |
| 20260506193924 | 15 | 189 | 14.5 | 32.2 | 0.00 | 0.00 | 0.00 | 78 | 1016.9 |
| 20260506192920 | 15 | 168 | 16.1 | 33.8 | 0.00 | 0.00 | 0.00 | 78 | 1016.9 |
| 20260506191823 | 15 | 176 | 17.7 | 27.4 | 0.00 | 0.00 | 0.00 | 77 | 1016.9 |
| 20260506190820 | 15 | 173 | 20.9 | 32.2 | 0.00 | 0.00 | 0.00 | 76 | 1017.0 |
| 20260506185823 | 15 | 182 | 12.9 | 24.1 | 0.00 | 0.00 | 0.00 | 77 | 1016.9 |
| 20260506185723 | 15 | 182 | 12.9 | 22.5 | 0.00 | 0.00 | 0.00 | 77 | 1017.0 |
| 20260506183823 | 15 | 171 | 20.9 | 32.2 | 0.00 | 0.00 | 0.00 | 77 | 1017.3 |
| 20260506182821 | 15 | 169 | 14.5 | 27.4 | 0.00 | 0.00 | 0.00 | 76 | 1017.5 |
| 20260506182721 | 15 | 187 | 20.9 | 37.0 | 0.00 | 0.00 | 0.00 | 76 | 1017.5 |